Other Public Products
Issued by NWS Grand Forks, ND

Home | Current Version | Previous Version | Graphics & Text | Print | Product List | Glossary On
Versions: 1 2 3 4 5 6 7 8 9 10 11 12 13 14 15 16 17 18 19 20 21 22 23 24 25 26 27 28 29 30 31 32 33 34 35 36 37 38 39 40 41 42 43 44 45 46 47 48 49 50
000
FPUS83 KFGF 181410
OPUFGF
PRAIRIE TO PINES WEATHER ROUNDUP
NATIONAL WEATHER SERVICE EASTERN NORTH DAKOTA/GRAND FORKS ND
800 AM CST THU JAN 18 2018

 **SATELLITE DATA USED TO AUGMENT SKY COVER AT AUTOMATED STATIONS**
 *****  WEATHER ACROSS EASTERN NORTH DAKOTA  *****

CITY           SKY/WX    TMP DP  RH WIND       PRES   REMARKS
GRAND FORKS    FAIR      20  16  84 NW7       29.77R WCI  11
GRND FORKS AFB FAIR      22  16  75 N8        29.78R WCI  13
GRND FORKS NWS   N/A     23 N/A N/A NW5         N/A  WCI  17
BUXTON         NOT AVBL
DEVILS LAKE    FAIR      18  14  84 SW5       29.76F WCI  11
FARGO          FAIR      21  17  84 SW9       29.79F WCI  11
WAHPETON ARPT  FAIR      23  18  80 W10       29.82R WCI  12
$$

 *****  WEATHER ACROSS CENTRAL AND WESTERN NORTH DAKOTA  *****

CITY           SKY/WX    TMP DP  RH WIND       PRES   REMARKS
JAMESTOWN      FAIR      27  19  72 W14       29.78F WCI  16
BISMARCK       FAIR      16  13  88 CALM      29.83R
MINOT          FAIR      26  18  71 SW13      29.73F WCI  15
MINOT AFB      FAIR      25  17  72 W13       29.72F WCI  14
GARRISON         N/A     17  13  84 CALM      29.77F
WILLISTON      FAIR      20  15  81 S6        29.77F WCI  12
DICKINSON      FAIR      31  21  66 SW8       29.78  WCI  23
HETTINGER      FAIR      27  19  72 NW6       29.84F WCI  20
$$

 *****  OTHER OBSERVATIONS NORTHEAST NORTH DAKOTA  *****

CITY           SKY/WX    TMP DP  RH WIND       PRES   REMARKS
WALHALLA       FAIR      25  25 100 E5        29.76S WCI  19
LANGDON        FAIR      16  16 100 CALM      29.72F
CAVALIER         N/A     25  18  74 CALM      29.77S
GRAFTON        CLOUDY    27  19  74 MISG      29.79S
CANDO          FAIR      10  10 100 W9        29.76F WCI  -2
FORT TOTTEN      N/A     20  15  81 W3        29.95
ROLLA          FAIR      16  12  86 W3        29.72R
RUGBY          FAIR      12  12 100 SW9       29.75S WCI   0
 ***** THE ABOVE OBSERVATIONS ARE NON NWS ARE NOT QUALITY
        CONTROLLED AND MAY MIS-REPORT RAIN FOR SNOW...
$$

 *****  OTHER OBSERVATIONS SOUTHEAST NORTH DAKOTA *****

CITY           SKY/WX    TMP DP  RH WIND       PRES   REMARKS
COOPERSTOWN    FAIR      16  12  86 W8        29.78S WCI   5
VALLEY CITY    FAIR      21  19  93 W17       29.80S WCI   7
OAKES            N/A     16  16 100 S12       29.83S WCI   3
GWINNER          N/A     19  18  93 SW14      29.81F WCI   6
SHEYENNE NWR     N/A     22  19  89 W8        29.95S WCI  12
BUFFALO        NOT AVBL
WYNDMERE       NOT AVBL
 ***** THE ABOVE OBSERVATIONS ARE NON NWS ARE NOT QUALITY
       CONTROLLED AND MAY MIS-REPORT RAIN FOR SNOW...
$$

  *****  WEATHER ACROSS NORTHERN MINNESOTA  *****

CITY           SKY/WX    TMP DP  RH WIND       PRES   REMARKS
FLAG ISLAND    CLOUDY    25  21  86 NW12      29.68R WCI  14
WARROAD        FAIR      23  19  86 W9        29.71S WCI  13
ROSEAU         CLOUDY    25  19  80 W7        29.72R WCI  17
HALLOCK        CLOUDY    25  19  80 NW5       29.76S WCI  19
THF RVR FALLS  CLOUDY    28  22  78 NW7       29.76R WCI  21
HALSTAD        NOT AVBL
FOSSTON        CLOUDY    21  16  79 SW6       29.76R WCI  14
BAUDETTE       CLOUDY    28  24  85 NW13      29.67R WCI  17
WASKISH        CLOUDY    30  25  80 W10       29.71R WCI  21
CROOKSTON      FAIR      19  16  86 NW3       29.79R
$$
  *****  WEATHER ACROSS CENTRAL AND WEST MINNESOTA  *****

CITY           SKY/WX    TMP DP  RH WIND       PRES   REMARKS
BEMIDJI        CLOUDY    30  24  78 W12       29.72R WCI  20
PARK RAPIDS    FAIR      23  17  78 W9        29.74R WCI  13
WADENA         FAIR      23  19  86 W10       29.77R WCI  12
DETROIT LAKES  FAIR      28  23  80 W9        29.78S WCI  20
MOORHEAD       FAIR      19  16  86 SW6       29.81S WCI  11
FERGUS FALLS   FAIR      19  18  93 W5        29.82S WCI  13
ELBOW LAKE     FAIR      22  19  87 CALM      29.82S
MORRIS MN      FAIR      23  19  86 CALM      29.83R
STAPLES        FAIR      27  19  74 W9        29.77R WCI  17
WHEATON        FAIR      28  19  69 SW8       29.85S WCI  20
$$
  *****  WEATHER ELSEWHERE ACROSS MINNESOTA  *****

CITY           SKY/WX    TMP DP  RH WIND       PRES   REMARKS
DULUTH         CLOUDY    30  22  72 W14       29.69R WCI  19
INTRNTL FALLS  CLOUDY    30  25  81 W14       29.65R WCI  19
ELY            CLOUDY    27  27 100 SW6       29.64S FOG     WCI  20
CLOQUET        MOCLDY    25  18  74 S5        29.71S WCI  19
BRAINERD       FAIR      26  18  71 W7        29.76S WCI  18
HIBBING        CLOUDY    27  22  81 SW3       29.68R
ALEXANDRIA     FAIR      32  21  64 W13       29.81S WCI  22
SAINT CLOUD    FAIR      20  16  84 SW8       29.82F WCI  10
MINNEAPOLIS    FAIR      23  18  81 SW7       29.89F WCI  15
$$

  *****  WEATHER ACROSS SOUTH DAKOTA  *****

CITY           SKY/WX    TMP DP  RH WIND       PRES   REMARKS
SIOUX FALLS    FAIR      13  12  96 CALM      29.94F
BROOKINGS      FAIR      17  14  88 SE3       29.90S
WATERTOWN      FAIR      14  12  92 SE3       29.87S
HURON          FAIR      19  16  88 S6        29.90S WCI  11
SISSETON         N/A     34  22  61 NW9       29.81R
ABERDEEN       FAIR      16  14  92 S8        29.86F WCI   5
MITCHELL       FAIR      15  13  91 S8        29.93F WCI   4
PIERRE         FAIR      23  20  88 SW6       29.88F WCI  16
MOBRIDGE       FAIR      22  17  81 CALM      29.82F
RAPID CITY     FAIR      35  16  45 NW5       29.91R
$$

  *****  SOME WEATHER IN NEARBY STATES *****

CITY           SKY/WX    TMP DP  RH WIND       PRES   REMARKS
GLASGOW MT     FAIR      20  15  81 E12       29.73F WCI   8
GREAT FALLS MT FAIR      45  27  49 SW24G35   29.72F
CHEYENNE WY    FAIR      37  11  34 SW6       30.08R
SCOTTSBLUFF NE FAIR      23  18  81 N8        30.02R WCI  14
OMAHA NE       FAIR      15   8  73 SE15      30.08F WCI   0
DES MOINES IA  MOCLDY    20  10  65 SW14      30.07F WCI   7
DAVENPORT IA   FAIR      18  10  71 SW16      30.14F WCI   3
CHICAGO IL     FAIR      17  10  74 SW15      30.11F WCI   2
EAU CLAIRE WI  FAIR      19  15  84 S9        29.88F WCI   8
LA CROSSE WI   FAIR      20  12  71 S12       29.96F WCI   8
$$

  *****  SOME NATIONAL WEATHER *****

CITY           SKY/WX    TMP DP  RH WIND       PRES   REMARKS
LA GUARDIA NY  FAIR      23  10  57 NW17      30.03F WCI   9
RALEIGH NC     FAIR      15   9  76 VRB5      30.29S WCI   8
ATLANTA GA     FAIR      18  10  71 N13       30.41R WCI   5
NEW ORLEANS LA FAIR      28  18  66 NE12      30.57R WCI  18
OKLAHOMA CITY  FAIR      15   8  73 S8        30.38F WCI   4
ALBUQUERQUE NM FAIR      23  13  65 N6        30.30R WCI  16
SALT LAKE CITY FAIR      36  29  75 S7        30.24F
LOS ANGELES CA FAIR      56  48  74 E3        30.08R
BOISE ID       FAIR      48  34  58 SE18G28   29.94F
SEATTLE WA     CLOUDY    44  39  82 S14       29.80F
$$

*** WEATHER ACROSS MANITOBA...SASKATCHEWAN AND ONTARIO ***
                ***ONTARIO***

CITY           SKY/WX    TMP DP  RH WIND       PRES   REMARKS
GERALDTON      PTCLDY    -4  -8  84 E5        29.70S WCI -15
THUNDER BAY    FLURRIES  16  14  93 VRB2      29.68S
SIOUX LOOKOUT  FRZ DRZL  16  16 100 VRB2      29.60R VSB 1/4
TORONTO        FLURRIES  18   9  68 SW12G17   30.02S WCI   5
BIG TROUT LK   FLURRIES   5   1  85 VRB2      29.79S
PICKLE LAKE    PTCLDY     1  -2  85 NE5       29.67R WCI  -8
DRYDEN         HVY SNOW  25  25 100 W6        29.59R VSB 1/8 WCI  18
KENORA         CLOUDY    25  23  93 NW10      29.64R WCI  15
$$
                *** MANITOBA***

CITY           SKY/WX    TMP DP  RH WIND       PRES   REMARKS
BRANDON        MOCLDY    21  18  86 W8        29.71R WCI  12
DAUPHIN        CLOUDY    19  12  73 E6        29.70F WCI  11
ISLAND LAKE    FLURRIES   9   5  85 E6        29.72F WCI  -1
PILOT MOUND      N/A     23  18  80 W7          N/A  WCI  15
THE PAS        MOCLDY     1  -2  85 SE5       29.67F WCI  -8
THOMPSON       FLURRIES   7   3  85 VRB2      29.74S
WINNIPEG       MOCLDY    14   9  79 W7        29.74S WCI   4
LYNN LAKE      FLURRIES   7   5  92 SE6       29.64F WCI  -3
CHURCHILL      FLURRIES   0  -4  85 W6        29.85S WCI -12
GILLAM         FLURRIES  -2  -6  84 E3        29.83S
$$
                ***SASKATCHEWAN***

CITY           SKY/WX    TMP DP  RH WIND       PRES   REMARKS
ESTEVAN        CLOUDY    19  14  79 S8        29.71F WCI   9
KINDERSLEY     MOCLDY    32  27  80 S14       29.47F WCI  22
LLOYDMINSTER   CLOUDY    27  23  86 S6        29.38F WCI  20
PRINCE ALBERT  MOCLDY     3   0  85 CALM      29.58S
REGINA         MOCLDY    16  12  86 SE10      29.63F WCI   3
YORKTON        PTCLDY    19  16  86 S8        29.65F WC


USA.gov is the U.S. government's official web portal to all federal, state and local government web resources and services.